Location: Street
(51.1247°N, 2.7429°W)
Time: 02:22:28
(UTC+00:00)

Transit 2A Rocket - Pass Details

Date: 01 December 2020
Orbit: 592 x 911 km, 66.7° (Epoch: 16 January)

Event Time Altitude Azimuth Distance (km) Brightness Sun altitude
Exits shadow 03:56:58 14° 21° (NNE) 2,057 7.5 -36.0°
Drops below altitude 10° 03:57:51 10° 27° (NNE) 2,320 7.8 -35.9°
Sets 04:00:28 0° 39° (NE) 3,191 8.8 -35.5°
